Theta_e
306 306 306 305 305 305 306 308 310 310 311 309 310 310 308 307 307 307 310 316 317 314 314 325 336 335 340 347 350 347 351 356 348 350 353 348 352 352 350 346 346 344 343 343 343
308 308 307 307 306 306 306 307 309 310 309 309 310 311 310 308 308 309 315 313 317 313 314 328 338 339 342 347 351 351 353 351 345 345 349 349 353 353 351 348 346 344 343 343 342
308 308 308 308 308 306 306 308 309 309 309 307 309 309 310 310 310 320 321 322 316 315 322 329 331 338 343 347 350 350 352 347 344 345 347 349 353 353 351 351 348 345 343 342 342
307 307 308 308 309 308 307 307 309 309 308 307 311 311 309 311 317 317 319 320 318 314 323 327 336 338 338 344 348 353 351 349 349 345 347 348 350 350 351 351 349 345 344 342 342
306 307 307 307 308 308 308 308 309 309 308 309 312 310 309 310 309 315 319 319 315 316 328 326 332 333 332 338 343 349 350 350 349 349 348 349 349 349 350 350 348 344 343 342 341
306 306 307 307 307 308 308 309 309 308 308 309 309 312 311 312 312 313 317 318 317 323 327 326 326 330 332 340 338 339 345 348 345 347 346 348 347 347 351 347 345 343 343 341 340
304 305 306 307 307 307 309 309 308 308 308 308 311 314 315 314 311 313 314 320 316 322 325 328 326 326 326 327 333 336 341 337 339 339 344 343 347 350 348 347 345 343 342 341 340
304 305 306 307 307 308 309 309 308 308 308 311 313 315 316 310 311 313 315 316 318 322 322 325 324 328 323 324 324 327 331 332 338 340 340 341 349 348 347 347 345 343 342 341 339
303 304 306 308 309 309 309 308 307 308 310 312 311 312 310 311 312 313 315 316 321 325 317 318 321 321 322 326 327 328 326 329 334 339 344 344 347 349 347 347 345 343 341 340 339
304 304 306 310 310 308 308 308 308 309 309 311 310 311 310 309 311 312 315 317 321 319 317 317 320 320 321 323 323 327 327 335 334 342 342 345 346 352 349 347 345 342 340 339 339
304 304 305 310 307 306 307 308 308 309 308 307 308 308 308 310 311 310 317 321 320 316 316 318 318 321 320 321 322 327 331 330 336 339 343 345 345 351 350 348 345 342 340 339 340
303 303 305 310 307 307 308 308 308 308 309 308 308 308 308 310 311 309 316 319 323 323 317 317 318 318 318 317 321 322 327 330 333 333 341 343 345 345 351 350 348 345 341 340 341
303 303 306 309 308 307 308 308 309 308 306 307 308 308 308 310 310 309 311 313 319 323 322 321 320 318 317 317 318 321 322 327 329 329 334 338 342 341 351 350 349 348 345 342 341
303 303 308 309 308 308 308 309 309 308 308 310 309 308 308 309 309 308 310 313 315 320 323 323 323 319 318 319 318 319 319 322 327 329 337 337 348 344 344 353 351 349 348 347 344
303 303 309 309 309 308 309 309 308 306 310 310 308 307 307 309 309 309 309 313 315 317 318 324 324 324 323 321 319 319 319 319 320 327 330 333 338 344 345 350 352 350 349 348 347
304 302 308 309 309 309 309 308 307 309 309 309 307 307 308 309 309 308 312 312 314 316 318 318 317 320 324 324 319 320 320 321 321 321 325 332 335 339 343 349 350 349 349 349 348
309 303 308 310 310 309 309 308 309 309 308 308 307 307 308 308 308 309 313 314 315 311 316 314 316 318 319 322 322 322 323 326 325 325 322 326 333 335 338 342 345 348 349 349 349
309 304 307 309 310 310 309 309 310 308 308 307 307 307 307 308 308 308 311 313 313 314 316 315 311 319 316 321 323 324 324 325 327 326 322 324 333 334 333 333 340 344 347 349 350
307 303 310 308 310 311 309 309 309 307 307 307 306 307 307 308 307 308 310 314 313 313 313 315 316 315 315 316 319 323 326 324 324 327 327 324 326 330 332 333 334 340 346 348 349
306 306 308 307 308 310 311 309 308 307 307 307 307 307 307 307 307 308 308 311 312 311 311 313 307 312 315 315 319 321 323 327 326 327 327 327 327 327 333 333 335 336 342 346 348
305 305 306 308 308 307 310 308 306 307 308 308 307 307 307 307 308 308 307 310 311 311 310 311 310 307 310 315 321 323 323 326 327 328 328 326 328 328 329 336 335 335 336 342 346
305 304 305 308 310 305 309 307 306 307 307 308 307 307 307 307 308 308 308 307 310 311 311 311 312 311 308 309 312 314 319 324 330 332 330 330 328 327 330 331 333 333 333 335 342
304 304 305 308 310 309 306 307 307 308 309 309 308 307 307 307 307 308 308 309 310 310 311 312 311 309 306 310 313 315 317 319 324 328 333 332 329 329 329 329 329 332 334 337 340
305 308 306 305 304 305 304 307 308 307 309 309 309 307 306 306 307 307 308 311 310 309 310 310 311 309 307 309 314 315 317 317 321 328 331 332 329 329 331 329 329 328 326 327 335
305 305 304 308 307 305 305 305 308 309 309 309 310 308 309 309 307 307 307 307 310 309 310 310 310 309 310 309 310 311 313 314 316 322 330 331 333 331 332 333 332 329 328 328 327
306 306 304 305 304 305 305 307 307 307 307 308 309 309 309 311 309 309 307 308 308 309 310 309 310 309 309 307 309 312 313 314 315 317 322 326 330 332 331 330 329 331 337 339 339
305 305 305 306 306 306 308 307 308 308 307 307 308 304 307 308 307 308 308 307 307 308 309 310 309 309 309 308 312 316 314 315 317 320 322 325 328 330 335 343 343 343 343 343 344
Wind_Speed
24 24 23 23 22 22 19 17 18 18 16 22 20 15 13 12 11 13 11 7 15 11 23 23 21 18 16 12 6 4 2 4 3 6 3 6 5 7 6 17 6 8 10 28 39
27 26 24 23 23 23 21 18 18 20 17 22 21 14 13 13 11 10 5 7 11 17 28 29 23 21 9 9 5 6 3 4 4 5 2 7 9 14 7 16 5 10 19 32 36
26 26 25 24 23 23 22 19 19 20 20 21 16 15 13 12 4 4 2 3 22 23 24 25 25 18 11 12 8 6 4 3 5 6 3 7 12 9 14 9 10 19 30 36 37
24 24 24 24 24 23 21 19 19 21 23 20 13 15 18 8 1 5 5 4 26 28 26 26 21 13 9 9 13 5 10 9 3 3 6 8 8 5 11 2 13 22 34 42 40
26 25 25 24 24 23 20 19 18 21 22 17 16 19 12 2 2 12 7 1 31 30 29 24 25 15 11 10 7 13 6 4 9 7 8 7 7 4 7 4 13 25 37 40 39
28 27 26 26 25 23 19 18 19 19 19 16 17 14 4 4 6 13 13 11 32 30 25 22 19 15 11 5 9 8 19 11 7 8 9 11 14 3 3 13 20 30 37 41 41
29 28 28 27 26 23 19 18 19 18 14 17 14 14 16 8 12 8 11 6 27 26 24 19 7 16 6 7 9 14 6 5 10 11 6 4 5 8 15 18 24 29 34 37 38
31 31 29 28 26 23 19 18 17 12 13 9 9 11 6 18 13 7 9 5 16 26 18 18 10 14 3 3 2 6 7 4 2 13 8 8 3 7 20 22 23 27 32 35 36
31 32 30 28 24 20 18 18 12 10 5 11 12 6 4 14 19 11 6 4 10 30 13 9 9 5 8 4 4 5 7 13 6 11 8 12 3 7 18 19 23 27 33 34 34
31 30 29 27 20 16 18 14 6 12 8 6 14 4 13 12 15 18 6 7 7 20 13 5 11 8 7 11 10 11 12 7 12 8 13 10 11 8 16 16 20 25 30 33 35
31 32 32 25 12 15 19 6 6 4 13 8 5 5 11 10 12 22 9 11 16 14 12 7 10 20 20 12 13 2 6 12 7 6 10 16 13 11 16 16 19 25 28 32 36
32 32 30 20 7 10 16 11 12 5 4 3 11 8 12 6 5 27 8 3 7 8 11 6 17 15 10 13 12 18 12 8 7 5 9 10 16 11 18 24 28 30 31 34 31
30 29 27 14 10 7 14 15 16 4 1 2 2 9 15 7 7 17 15 3 4 10 15 13 2 16 13 13 16 17 19 15 7 7 11 6 14 12 13 17 19 22 25 28 33
27 27 22 9 1 9 9 16 14 1 2 3 1 5 15 5 5 14 15 4 1 6 11 11 17 8 14 18 17 18 15 17 15 8 8 10 13 16 14 17 19 25 28 31 33
26 25 17 6 3 5 11 15 6 4 3 4 3 5 9 6 6 12 13 5 2 0 2 8 9 15 18 16 15 16 8 16 18 17 13 14 8 17 8 16 19 26 30 32 33
25 21 12 4 4 8 11 9 6 2 5 3 3 4 3 8 3 9 9 7 1 2 2 6 6 5 10 16 16 4 10 10 13 14 18 23 15 15 17 17 19 22 29 33 34
25 20 5 4 7 7 10 2 2 4 1 2 3 2 4 3 3 6 5 10 5 1 1 4 5 4 13 9 11 15 10 6 8 9 17 19 17 19 13 16 17 20 32 36 36
25 17 3 7 3 5 7 1 6 2 1 2 0 2 2 1 2 5 4 3 8 3 2 2 7 1 8 15 12 16 18 8 13 10 13 16 14 15 23 25 20 22 27 27 32
26 11 4 11 4 3 2 2 2 3 1 3 2 4 4 3 1 1 2 3 1 4 1 2 6 6 9 9 8 16 19 20 15 4 10 14 18 12 13 18 28 22 18 27 33
24 5 9 13 6 2 1 3 2 2 1 3 4 3 4 0 2 1 3 5 6 2 5 3 7 2 8 9 14 13 13 17 13 18 19 7 19 12 22 17 19 22 21 25 29
14 3 14 14 6 3 3 1 3 4 1 5 5 4 6 4 6 5 4 4 7 7 2 4 4 2 8 4 10 14 14 16 18 19 11 16 9 11 19 21 19 19 30 28 29
11 1 17 9 5 4 2 6 6 4 1 3 3 7 8 7 6 6 8 5 12 10 4 4 3 5 13 17 22 17 11 22 14 23 19 16 13 4 14 21 25 27 26 31 31
9 6 12 9 3 4 5 4 4 4 4 3 3 5 5 8 4 8 6 8 13 9 6 7 3 5 11 11 18 11 17 17 24 21 23 17 14 14 8 9 15 21 26 21 28
6 3 7 13 7 3 5 4 6 7 2 4 4 2 3 6 5 2 6 9 14 9 8 7 4 7 12 17 11 10 12 16 20 21 21 21 21 22 14 8 10 11 15 15 19
7 3 4 4 6 6 6 5 7 6 7 8 4 7 6 6 5 8 7 6 12 13 9 7 7 8 14 20 24 26 26 26 20 23 22 22 22 24 22 23 21 18 13 7 11
4 3 3 2 3 5 1 2 6 6 2 5 9 11 9 7 10 7 7 8 11 12 11 8 6 9 18 23 23 28 29 26 23 24 19 17 15 2 11 19 17 14 12 15 16
3 1 0 2 3 3 3 4 8 14 8 15 11 1 5 10 17 21 17 17 14 9 12 9 5 7 21 17 17 22 30 25 21 17 21 22 15 7 4 3 1 5 10 15 17
Wind_Direction
11 6 3 2 2 2 359 355 356 356 353 344 336 325 312 307 294 280 276 270 213 194 182 171 168 169 167 177 184 173 228 252 242 201 164 167 153 150 127 146 143 182 157 158 161
15 9 3 359 357 356 353 349 350 352 350 349 344 321 320 312 308 294 232 223 193 198 181 174 163 159 169 188 209 209 228 240 230 234 165 167 147 141 150 161 101 104 137 152 159
13 9 6 1 356 353 347 344 346 346 343 344 346 357 335 323 337 141 33 267 188 185 184 174 164 157 173 182 199 198 236 264 273 181 163 147 144 153 154 186 185 160 155 160 164
6 4 1 -0 357 354 343 339 341 340 341 340 330 331 337 322 133 341 292 328 184 184 178 168 166 172 184 191 206 240 243 247 317 214 148 186 142 123 179 142 183 173 166 163 170
1 360 355 354 353 353 341 336 336 338 340 341 340 326 321 23 353 359 337 157 177 181 180 175 175 179 193 204 195 226 265 256 247 261 293 290 286 283 210 157 150 160 165 171 172
358 357 352 349 351 350 338 335 335 337 337 343 345 352 70 78 47 30 28 164 178 177 177 179 191 183 196 205 215 231 236 256 297 270 276 283 282 221 143 152 151 163 171 174 177
354 355 350 345 344 345 336 335 333 338 338 344 354 90 73 68 21 357 18 130 193 179 178 176 196 184 167 207 228 240 309 289 247 255 262 255 269 223 163 159 159 169 175 178 180
352 352 350 346 342 339 335 337 333 343 342 27 67 87 96 16 30 51 24 131 191 184 177 187 174 199 226 286 203 215 228 259 184 203 238 205 238 171 166 164 166 172 178 181 184
350 349 350 347 345 340 345 340 354 24 34 44 52 69 31 33 28 37 21 158 166 190 159 198 191 204 221 232 204 184 219 220 252 193 206 205 259 161 174 175 168 178 183 183 186
345 347 351 352 347 347 352 346 25 30 35 42 37 90 24 342 14 19 75 139 134 164 180 138 192 207 207 205 209 200 216 216 223 197 209 212 243 163 178 186 179 184 185 185 190
345 347 353 353 359 2 5 19 11 34 50 65 57 73 342 20 34 23 126 119 115 152 179 175 200 213 208 211 225 276 250 239 216 222 210 223 241 205 182 191 188 189 189 192 197
345 347 352 353 23 21 23 58 34 336 319 71 58 37 23 37 22 19 98 164 153 166 165 176 229 224 234 209 223 243 259 267 262 275 230 214 234 215 193 196 198 191 194 195 196
344 343 349 352 38 20 28 22 358 342 256 288 116 24 13 64 43 8 13 354 189 162 192 208 197 207 205 206 217 231 239 241 276 337 250 254 244 220 210 212 206 208 203 203 201
343 343 345 350 42 17 13 353 339 281 346 149 91 30 3 144 73 16 10 6 150 215 194 224 234 193 215 224 214 232 228 243 254 294 241 217 247 223 218 208 207 207 204 206 204
342 344 348 13 10 23 338 339 339 108 264 92 89 59 35 60 351 12 360 19 8 325 242 192 200 211 226 226 218 239 224 226 238 249 273 245 244 240 204 217 211 212 210 210 206
339 345 348 338 6 350 349 348 129 180 235 114 66 25 50 35 50 348 3 17 43 303 203 259 305 267 220 218 199 211 225 240 235 237 241 238 238 238 218 217 217 214 213 212 208
338 339 304 347 338 347 344 115 231 225 91 100 56 10 101 53 50 16 58 48 27 259 51 322 244 223 227 197 198 212 205 200 213 213 236 227 231 237 228 219 223 211 211 212 207
342 339 213 360 5 342 347 163 236 124 87 94 213 154 124 40 85 31 115 77 39 28 73 328 214 291 356 239 212 209 204 208 212 228 234 213 235 222 226 241 233 227 223 208 207
347 4 89 352 334 7 32 230 282 199 172 186 166 215 168 166 18 92 79 113 106 346 357 289 249 317 324 315 304 208 213 215 260 261 256 228 234 268 231 234 228 233 211 203 205
348 54 21 358 335 297 172 239 246 248 220 209 241 215 212 235 237 215 197 152 155 200 311 156 287 318 339 327 237 235 212 207 224 243 238 216 225 230 212 228 224 223 214 210 209
357 93 4 359 24 90 244 264 297 239 268 220 221 226 233 220 216 196 200 162 169 163 210 189 235 257 320 237 260 222 230 219 223 234 238 241 234 222 229 211 218 221 222 217 210
5 49 359 5 46 35 39 332 321 291 326 271 243 233 225 197 208 220 218 228 171 166 191 186 178 281 278 275 272 276 281 243 225 228 234 263 236 147 226 217 217 222 228 224 220
358 341 11 33 63 29 336 321 291 313 343 316 269 231 205 199 230 220 200 190 173 174 182 173 188 294 294 243 233 231 245 245 251 237 233 230 222 259 271 236 241 238 224 219 218
10 5 20 52 65 46 8 351 334 322 282 344 310 348 231 223 222 245 204 182 199 199 161 177 216 243 260 289 320 299 283 295 270 226 236 231 233 236 247 273 268 249 245 235 224
29 64 26 10 20 1 351 347 333 346 359 347 290 243 243 241 221 231 227 205 199 199 158 185 241 244 260 272 282 277 274 275 271 257 227 232 228 233 239 257 255 269 280 265 242
49 18 6 320 302 321 274 327 315 322 286 292 264 256 237 236 241 262 253 257 248 203 191 180 253 291 275 278 270 266 259 257 254 251 250 252 240 278 254 257 259 266 275 275 271
26 16 324 5 316 303 344 335 321 313 251 247 278 338 273 247 254 257 266 274 263 259 209 185 220 250 266 288 287 258 243 237 242 231 216 217 233 308 263 216 229 291 288 281 274